Regional Weather Roundup
Issued by NWS

Home | Current Version | Previous Version | Text Only | Print | Product List | Glossary On
Versions: 1 2 3 4 5 6 7 8 9 10 11 12 13 14 15 16 17 18 19 20 21 22 23 24 25 26 27 28 29 30 31 32 33 34 35 36 37 38 39 40 41 42 43 44 45 46 47 48 49 50
000
ASUS43 KBIS 061010
RWRND

NORTH DAKOTA REGIONAL WEATHER ROUNDUP
NATIONAL WEATHER SERVICE BISMARCK ND
400 AM CST TUE DEC 06 2016

NOTE: "FAIR" INDICATES FEW OR NO CLOUDS BELOW 12,000 FEET WITH NO
SIGNIFICANT WEATHER AND/OR OBSTRUCTIONS TO VISIBILITY.


NDZ001>003-009>011-017-061100-
NORTHWEST NORTH DAKOTA

CITY           SKY/WX    TMP DP  RH WIND       PRES   REMARKS
WILLISTON      LGT SNOW   7   2  80 NW23G30   29.98R WCI -14
MINOT          HVY SNOW  13  10  88 W37G44    29.72S VSB 1/4 WCI -10
$$

NDZ018>021-031>035-040>046-061100-
SOUTHWEST NORTH DAKOTA

CITY           SKY/WX    TMP DP  RH WIND       PRES   REMARKS
BISMARCK       LGT SNOW  13  11  92 NW26G41   29.74R VSB 1   WCI  -7
DICKINSON      MIX PCPN   5   0  79 NW36G44   29.84R WCI -21
GARRISON         N/A     10   7  87 NW36G47   29.73R WCI -14
HETTINGER ARPT CLOUDY     6   0  76 NW31G43   29.87R WCI -18
$$

NDZ004>008-012>016-024-026-027-054-061100-
NORTHEAST NORTH DAKOTA

CITY           SKY/WX    TMP DP  RH WIND       PRES   REMARKS
GRAND FORKS    CLOUDY    30  27  88 N20       29.31F FOG     WCI  17
GRND FRKS AFB  CLOUDY    28  28 100 N21G28    29.33S FOG     WCI  15
DEVILS LAKE    LGT SNOW  26  25  96 N29G38    29.45F VSB 1   WCI  10
$$

NDZ022-023-025-028>030-036>039-047>053-061100-
SOUTHEAST NORTH DAKOTA

CITY           SKY/WX    TMP DP  RH WIND       PRES   REMARKS
FARGO          CLOUDY    24  19  81 S20       29.43F WCI  10
JAMESTOWN      SNOW      25  23  92 NW32G40   29.46S VSB 1/2 WCI   8
$$




USA.gov is the U.S. government's official web portal to all federal, state and local government web resources and services.